This is the latest recevied weather packets stored in our database for station/object KD4WXI. If no packets are shown the sender has not sent any weather packets the latest 10 day(s).
| Time | Temp. | Humidity | Pressure | Rain* | Wind** | Luminosity | Snow |
|---|---|---|---|---|---|---|---|
| 1778120966 | 17.78° C | 99% | 1014 hPa | 1.78 mm | - | 0 W/m² | - |
| 1778120663 | 17.78° C | 99% | 1013.8 hPa | 1.27 mm | - | 0 W/m² | - |
| 1778120359 | 17.78° C | 99% | 1013.6 hPa | 1.27 mm | - | 0 W/m² | - |
| 1778120054 | 17.78° C | 99% | 1013.7 hPa | 1.78 mm | - | 0 W/m² | - |
| 1778119752 | 17.78° C | 99% | 1013.6 hPa | 1.78 mm | - | 0 W/m² | - |
| 1778119448 | 17.78° C | 99% | 1013.5 hPa | 1.27 mm | - | 0 W/m² | - |
| 1778119145 | 18.33° C | 99% | 1014 hPa | 3.05 mm | - | 0 W/m² | - |
| 1778118844 | 18.33° C | 99% | 1013.8 hPa | 3.05 mm | - | 0 W/m² | - |
| 1778118540 | 18.33° C | 99% | 1013.6 hPa | 3.05 mm | - | 0 W/m² | - |
| 1778118236 | 18.33° C | 99% | 1013.6 hPa | 1.78 mm | - | 0 W/m² | - |
| 1778117933 | 18.33° C | 99% | 1013.1 hPa | 0 mm | - | 0 W/m² | - |
| 1778117630 | 18.89° C | 99% | 1013.1 hPa | 0 mm | - | 0 W/m² | - |
| 1778117328 | 18.89° C | 99% | 1013.1 hPa | 0 mm | - | 0 W/m² | - |
| 1778117024 | 18.89° C | 99% | 1013 hPa | 0 mm | - | 0 W/m² | - |
| 1778116721 | 18.89° C | 99% | 1012.8 hPa | 0 mm | - | 0 W/m² | - |
| 1778116418 | 18.89° C | 99% | 1012.7 hPa | 1.78 mm | - | 0 W/m² | - |
| 1778116117 | 18.89° C | 99% | 1012.7 hPa | 3.05 mm | - | 0 W/m² | - |
| 1778115813 | 19.44° C | 98% | 1012.6 hPa | 3.05 mm | - | 0 W/m² | - |
| 1778115511 | 19.44° C | 98% | 1012.7 hPa | 3.05 mm | - | 0 W/m² | - |
| 1778115207 | 19.44° C | 98% | 1012.6 hPa | 1.27 mm | - | 0 W/m² | - |
| 1778114904 | 19.44° C | 98% | 1013 hPa | 0 mm | - | 0 W/m² | - |
| 1778114601 | 19.44° C | 98% | 1012.7 hPa | 0 mm | - | 0 W/m² | - |
| 1778114298 | 19.44° C | 98% | 1012.7 hPa | 1.78 mm | - | 0 W/m² | - |
| 1778113994 | 19.44° C | 98% | 1012.7 hPa | 1.78 mm | - | 0 W/m² | - |
| 1778113689 | 19.44° C | 97% | 1012.8 hPa | 0 mm | - | 0 W/m² | - |
* Rain latest hour (hover to see other rain measurements)
** Current wind speed in m/s (hover to see current wind gust speed)